Year,Month,Day,Hour,Minute,Value (Times are PST for temperature in C)
2006,07,23,00,00,21.80
2006,07,23,00,01,21.80
2006,07,23,00,02,21.80
2006,07,23,00,03,21.80
2006,07,23,00,04,21.80
2006,07,23,00,05,21.80
2006,07,23,00,06,21.80
2006,07,23,00,07,21.80
2006,07,23,00,08,21.80
2006,07,23,00,09,21.80
2006,07,23,00,10,21.80
2006,07,23,00,11,21.80
2006,07,23,00,12,21.80
2006,07,23,00,13,21.80
2006,07,23,00,14,21.80
2006,07,23,00,15,21.80
2006,07,23,00,16,21.80
2006,07,23,00,17,21.80
2006,07,23,00,18,21.80
2006,07,23,00,19,21.80
2006,07,23,00,20,21.80
2006,07,23,00,21,21.80
2006,07,23,00,22,21.80
2006,07,23,00,23,21.70
2006,07,23,00,24,21.70
2006,07,23,00,25,21.70
2006,07,23,00,26,21.70
2006,07,23,00,27,21.70
2006,07,23,00,28,21.70
2006,07,23,00,29,21.70
2006,07,23,00,30,21.70
2006,07,23,00,31,21.60
2006,07,23,00,32,21.60
2006,07,23,00,33,21.60
2006,07,23,00,34,21.60
2006,07,23,00,35,21.60
2006,07,23,00,36,21.60
2006,07,23,00,37,21.60
2006,07,23,00,38,21.60
2006,07,23,00,39,21.60
2006,07,23,00,40,21.60
2006,07,23,00,41,21.60
2006,07,23,00,42,21.60
2006,07,23,00,43,21.60
2006,07,23,00,44,21.60
2006,07,23,00,45,21.60
2006,07,23,00,46,21.60
2006,07,23,00,47,21.60
2006,07,23,00,48,21.60
2006,07,23,00,49,21.60
2006,07,23,00,50,21.40
2006,07,23,00,51,21.40
2006,07,23,00,52,21.40
2006,07,23,00,53,21.40
2006,07,23,00,54,21.40
2006,07,23,00,55,21.40
2006,07,23,00,56,21.40
2006,07,23,00,57,21.40
2006,07,23,00,58,21.40
2006,07,23,00,59,21.40
2006,07,23,01,00,21.40
2006,07,23,01,01,21.40
2006,07,23,01,02,21.40
2006,07,23,01,03,21.40
2006,07,23,01,04,21.40
2006,07,23,01,05,21.40
2006,07,23,01,06,21.40
2006,07,23,01,07,21.40
2006,07,23,01,08,21.40
2006,07,23,01,09,21.30
2006,07,23,01,10,21.30
2006,07,23,01,11,21.30
2006,07,23,01,12,21.30
2006,07,23,01,13,21.30
2006,07,23,01,14,21.30
2006,07,23,01,15,21.30
2006,07,23,01,16,21.30
2006,07,23,01,17,21.30
2006,07,23,01,18,21.30
2006,07,23,01,19,21.30
2006,07,23,01,20,21.30
2006,07,23,01,21,21.30
2006,07,23,01,22,21.30
2006,07,23,01,23,21.30
2006,07,23,01,24,21.30
2006,07,23,01,25,21.30
2006,07,23,01,26,21.30
2006,07,23,01,27,21.30
2006,07,23,01,28,21.30
2006,07,23,01,29,21.30
2006,07,23,01,30,21.30
2006,07,23,01,31,21.20
2006,07,23,01,32,21.20
2006,07,23,01,33,21.20
2006,07,23,01,34,21.20
2006,07,23,01,35,21.20
2006,07,23,01,36,21.20
2006,07,23,01,37,21.20
2006,07,23,01,38,21.10
2006,07,23,01,39,21.10
2006,07,23,01,40,21.10
2006,07,23,01,41,21.10
2006,07,23,01,42,21.10
2006,07,23,01,43,21.10
2006,07,23,01,44,21.10
2006,07,23,01,45,21.10
2006,07,23,01,46,21.10
2006,07,23,01,47,21.10
2006,07,23,01,48,21.10
2006,07,23,01,49,21.10
2006,07,23,01,50,21.10
2006,07,23,01,51,21.10
2006,07,23,01,52,21.10
2006,07,23,01,53,21.10
2006,07,23,01,54,21.10
2006,07,23,01,55,21.10
2006,07,23,01,56,21.10
2006,07,23,01,57,21.10
2006,07,23,01,58,21.10
2006,07,23,01,59,21.10
2006,07,23,02,00,21.10
2006,07,23,02,01,21.10
2006,07,23,02,02,21.00
2006,07,23,02,03,21.00
2006,07,23,02,04,21.00
2006,07,23,02,05,21.00
2006,07,23,02,06,21.00
2006,07,23,02,07,21.00
2006,07,23,02,08,21.00
2006,07,23,02,09,21.00
2006,07,23,02,10,21.00
2006,07,23,02,11,21.00
2006,07,23,02,12,20.90
2006,07,23,02,13,20.90
2006,07,23,02,14,20.90
2006,07,23,02,15,20.90
2006,07,23,02,16,20.90
2006,07,23,02,17,20.90
2006,07,23,02,18,20.80
2006,07,23,02,19,20.80
2006,07,23,02,20,20.80
2006,07,23,02,21,20.80
2006,07,23,02,22,20.70
2006,07,23,02,23,20.70
2006,07,23,02,24,20.70
2006,07,23,02,25,20.70
2006,07,23,02,26,20.60
2006,07,23,02,27,20.60
2006,07,23,02,28,20.60
2006,07,23,02,29,20.60
2006,07,23,02,30,20.60
2006,07,23,02,31,20.60
2006,07,23,02,32,20.60
2006,07,23,02,33,20.60
2006,07,23,02,34,20.60
2006,07,23,02,35,20.60
2006,07,23,02,36,20.60
2006,07,23,02,37,20.60
2006,07,23,02,38,20.60
2006,07,23,02,39,20.50
2006,07,23,02,40,20.50
2006,07,23,02,41,20.50
2006,07,23,02,42,20.50
2006,07,23,02,43,20.40
2006,07,23,02,44,20.40
2006,07,23,02,45,20.40
2006,07,23,02,46,20.30
2006,07,23,02,47,20.30
2006,07,23,02,48,20.30
2006,07,23,02,49,20.20
2006,07,23,02,50,20.20
2006,07,23,02,51,20.20
2006,07,23,02,52,20.20
2006,07,23,02,53,20.20
2006,07,23,02,54,20.20
2006,07,23,02,55,20.20
2006,07,23,02,56,20.20
2006,07,23,02,57,20.20
2006,07,23,02,58,20.10
2006,07,23,02,59,20.10
2006,07,23,03,00,20.10
2006,07,23,03,01,20.10
2006,07,23,03,02,20.10
2006,07,23,03,03,20.10
2006,07,23,03,04,20.10
2006,07,23,03,05,20.00
2006,07,23,03,06,20.00
2006,07,23,03,07,20.10
2006,07,23,03,08,20.10
2006,07,23,03,09,20.10
2006,07,23,03,10,20.10
2006,07,23,03,11,20.10
2006,07,23,03,12,20.10
2006,07,23,03,13,20.10
2006,07,23,03,14,20.10
2006,07,23,03,15,20.10
2006,07,23,03,16,20.10
2006,07,23,03,17,20.10
2006,07,23,03,18,20.10
2006,07,23,03,19,20.10
2006,07,23,03,20,20.10
2006,07,23,03,21,20.10
2006,07,23,03,22,20.10
2006,07,23,03,23,20.00
2006,07,23,03,24,19.90
2006,07,23,03,25,19.90
2006,07,23,03,26,19.90
2006,07,23,03,27,19.90
2006,07,23,03,28,19.90
2006,07,23,03,29,19.90
2006,07,23,03,30,19.90
2006,07,23,03,31,19.90
2006,07,23,03,32,19.90
2006,07,23,03,33,19.90
2006,07,23,03,34,19.90
2006,07,23,03,35,19.90
2006,07,23,03,36,19.90
2006,07,23,03,37,19.90
2006,07,23,03,38,19.80
2006,07,23,03,39,19.80
2006,07,23,03,40,19.80
2006,07,23,03,41,19.80
2006,07,23,03,42,19.80
2006,07,23,03,43,19.80
2006,07,23,03,44,19.70
2006,07,23,03,45,19.70
2006,07,23,03,46,19.70
2006,07,23,03,47,19.70
2006,07,23,03,48,19.70
2006,07,23,03,49,19.70
2006,07,23,03,50,19.70
2006,07,23,03,51,19.70
2006,07,23,03,52,19.70
2006,07,23,03,53,19.70
2006,07,23,03,54,19.70
2006,07,23,03,55,19.70
2006,07,23,03,56,19.70
2006,07,23,03,57,19.70
2006,07,23,03,58,19.70
2006,07,23,03,59,19.70
2006,07,23,04,00,19.70
2006,07,23,04,01,19.60
2006,07,23,04,02,19.60
2006,07,23,04,03,19.60
2006,07,23,04,04,19.60
2006,07,23,04,05,19.60
2006,07,23,04,06,19.60
2006,07,23,04,07,19.60
2006,07,23,04,08,19.60
2006,07,23,04,09,19.60
2006,07,23,04,10,19.60
2006,07,23,04,11,19.60
2006,07,23,04,12,19.60
2006,07,23,04,13,19.60
2006,07,23,04,14,19.60
2006,07,23,04,15,19.60
2006,07,23,04,16,19.60
2006,07,23,04,17,19.60
2006,07,23,04,18,19.60
2006,07,23,04,19,19.60
2006,07,23,04,20,19.60
2006,07,23,04,21,19.60
2006,07,23,04,22,19.60
2006,07,23,04,23,19.60
2006,07,23,04,24,19.60
2006,07,23,04,25,19.60
2006,07,23,04,26,19.60
2006,07,23,04,27,19.50
2006,07,23,04,28,19.50
2006,07,23,04,29,19.50
2006,07,23,04,30,19.50
2006,07,23,04,31,19.50
2006,07,23,04,32,19.50
2006,07,23,04,33,19.50
2006,07,23,04,34,19.50
2006,07,23,04,35,19.50
2006,07,23,04,36,19.50
2006,07,23,04,37,19.50
2006,07,23,04,38,19.50
2006,07,23,04,39,19.50
2006,07,23,04,40,19.50
2006,07,23,04,41,19.50
2006,07,23,04,42,19.40
2006,07,23,04,43,19.40
2006,07,23,04,44,19.40
2006,07,23,04,45,19.40
2006,07,23,04,46,19.40
2006,07,23,04,47,19.40
2006,07,23,04,48,19.40
2006,07,23,04,49,19.40
2006,07,23,04,50,19.40
2006,07,23,04,51,19.40
2006,07,23,04,52,19.40
2006,07,23,04,53,19.40
2006,07,23,04,54,19.40
2006,07,23,04,55,19.40
2006,07,23,04,56,19.40
2006,07,23,04,57,19.40
2006,07,23,04,58,19.40
2006,07,23,04,59,19.40
2006,07,23,05,00,19.40
2006,07,23,05,01,19.40
2006,07,23,05,02,19.40
2006,07,23,05,03,19.40
2006,07,23,05,04,19.30
2006,07,23,05,05,19.30
2006,07,23,05,06,19.30
2006,07,23,05,07,19.30
2006,07,23,05,08,19.30
2006,07,23,05,09,19.30
2006,07,23,05,10,19.30
2006,07,23,05,11,19.30
2006,07,23,05,12,19.30
2006,07,23,05,13,19.30
2006,07,23,05,14,19.20
2006,07,23,05,15,19.20
2006,07,23,05,16,19.20
2006,07,23,05,17,19.20
2006,07,23,05,18,19.20
2006,07,23,05,19,19.20
2006,07,23,05,20,19.20
2006,07,23,05,21,19.20
2006,07,23,05,22,19.20
2006,07,23,05,23,19.20
2006,07,23,05,24,19.20
2006,07,23,05,25,19.20
2006,07,23,05,26,19.20
2006,07,23,05,27,19.20
2006,07,23,05,28,19.10
2006,07,23,05,29,19.10
2006,07,23,05,30,19.10
2006,07,23,05,31,19.10
2006,07,23,05,32,19.10
2006,07,23,05,33,19.10
2006,07,23,05,34,19.10
2006,07,23,05,35,19.10
2006,07,23,05,36,19.10
2006,07,23,05,37,19.10
2006,07,23,05,38,19.10
2006,07,23,05,39,19.10
2006,07,23,05,40,19.10
2006,07,23,05,41,19.10
2006,07,23,05,42,19.10
2006,07,23,05,43,19.10
2006,07,23,05,44,19.10
2006,07,23,05,45,19.10
2006,07,23,05,46,19.10
2006,07,23,05,47,19.10
2006,07,23,05,48,19.10
2006,07,23,05,49,19.10
2006,07,23,05,50,19.10
2006,07,23,05,51,19.10
2006,07,23,05,52,19.10
2006,07,23,05,53,19.10
2006,07,23,05,54,19.10
2006,07,23,05,55,19.10
2006,07,23,05,56,19.10
2006,07,23,05,57,19.10
2006,07,23,05,58,19.10
2006,07,23,05,59,19.10
2006,07,23,06,00,19.10
2006,07,23,06,01,19.10
2006,07,23,06,02,19.10
2006,07,23,06,03,19.10
2006,07,23,06,04,19.10
2006,07,23,06,05,19.10
2006,07,23,06,06,19.10
2006,07,23,06,07,19.10
2006,07,23,06,08,19.10
2006,07,23,06,09,19.10
2006,07,23,06,10,19.10
2006,07,23,06,11,19.20
2006,07,23,06,12,19.20
2006,07,23,06,13,19.20
2006,07,23,06,14,19.30
2006,07,23,06,15,19.30
2006,07,23,06,16,19.40
2006,07,23,06,17,19.40
2006,07,23,06,18,19.40
2006,07,23,06,19,19.50
2006,07,23,06,20,19.50
2006,07,23,06,21,19.50
2006,07,23,06,22,19.60
2006,07,23,06,23,19.60
2006,07,23,06,24,19.70
2006,07,23,06,25,19.70
2006,07,23,06,26,19.80
2006,07,23,06,27,19.80
2006,07,23,06,28,19.90
2006,07,23,06,29,19.90
2006,07,23,06,30,19.90
2006,07,23,06,31,19.90
2006,07,23,06,32,19.90
2006,07,23,06,33,19.90
2006,07,23,06,34,20.00
2006,07,23,06,35,20.10
2006,07,23,06,36,20.10
2006,07,23,06,37,20.20
2006,07,23,06,38,20.20
2006,07,23,06,39,20.20
2006,07,23,06,40,20.30
2006,07,23,06,41,20.30
2006,07,23,06,42,20.50
2006,07,23,06,43,20.60
2006,07,23,06,44,20.70
2006,07,23,06,45,20.70
2006,07,23,06,46,20.80
2006,07,23,06,47,20.90
2006,07,23,06,48,21.00
2006,07,23,06,49,21.00
2006,07,23,06,50,21.10
2006,07,23,06,51,21.10
2006,07,23,06,52,21.20
2006,07,23,06,53,21.20
2006,07,23,06,54,21.20
2006,07,23,06,55,21.20
2006,07,23,06,56,21.20
2006,07,23,06,57,21.30
2006,07,23,06,58,21.30
2006,07,23,06,59,21.20
2006,07,23,07,00,21.20
2006,07,23,07,01,21.10
2006,07,23,07,02,21.00
2006,07,23,07,03,20.90
2006,07,23,07,04,20.80
2006,07,23,07,05,20.70
2006,07,23,07,06,20.50
2006,07,23,07,07,20.40
2006,07,23,07,08,20.20
2006,07,23,07,09,20.20
2006,07,23,07,10,20.10
2006,07,23,07,11,20.10
2006,07,23,07,12,20.10
2006,07,23,07,13,20.20
2006,07,23,07,14,20.30
2006,07,23,07,15,20.30
2006,07,23,07,16,20.40
2006,07,23,07,17,20.40
2006,07,23,07,18,20.40
2006,07,23,07,19,20.50
2006,07,23,07,20,20.50
2006,07,23,07,21,20.50
2006,07,23,07,22,20.50
2006,07,23,07,23,20.40
2006,07,23,07,24,20.40
2006,07,23,07,25,20.40
2006,07,23,07,26,20.40
2006,07,23,07,27,20.50
2006,07,23,07,28,20.60
2006,07,23,07,29,20.60
2006,07,23,07,30,20.70
2006,07,23,07,31,20.70
2006,07,23,07,32,20.80
2006,07,23,07,33,20.80
2006,07,23,07,34,20.80
2006,07,23,07,35,20.90
2006,07,23,07,36,20.90
2006,07,23,07,37,21.00
2006,07,23,07,38,21.00
2006,07,23,07,39,21.10
2006,07,23,07,40,21.10
2006,07,23,07,41,21.20
2006,07,23,07,42,21.30
2006,07,23,07,43,21.30
2006,07,23,07,44,21.30
2006,07,23,07,45,21.40
2006,07,23,07,46,21.40
2006,07,23,07,47,21.50
2006,07,23,07,48,21.60
2006,07,23,07,49,21.60
2006,07,23,07,50,21.60
2006,07,23,07,51,21.70
2006,07,23,07,52,21.80
2006,07,23,07,53,21.80
2006,07,23,07,54,22.00
2006,07,23,07,55,22.00
2006,07,23,07,56,22.10
2006,07,23,07,57,22.20
2006,07,23,07,58,22.30
2006,07,23,07,59,22.40
2006,07,23,08,00,22.50
2006,07,23,08,01,22.60
2006,07,23,08,02,22.70
2006,07,23,08,03,22.80
2006,07,23,08,04,22.90
2006,07,23,08,05,22.90
2006,07,23,08,06,23.00
2006,07,23,08,07,23.10
2006,07,23,08,08,23.10
2006,07,23,08,09,23.20
2006,07,23,08,10,23.20
2006,07,23,08,11,23.30
2006,07,23,08,12,23.30
2006,07,23,08,13,23.40
2006,07,23,08,14,23.50
2006,07,23,08,15,23.60
2006,07,23,08,16,23.70
2006,07,23,08,17,23.80
2006,07,23,08,18,23.90
2006,07,23,08,19,24.00
2006,07,23,08,20,24.10
2006,07,23,08,21,24.10
2006,07,23,08,22,24.20
2006,07,23,08,23,24.20
2006,07,23,08,24,24.20
2006,07,23,08,25,24.30
2006,07,23,08,26,24.30
2006,07,23,08,27,24.40
2006,07,23,08,28,24.40
2006,07,23,08,29,24.50
2006,07,23,08,30,24.50
2006,07,23,08,31,24.60
2006,07,23,08,32,24.60
2006,07,23,08,33,24.60
2006,07,23,08,34,24.60
2006,07,23,08,35,24.60
2006,07,23,08,36,24.70
2006,07,23,08,37,24.80
2006,07,23,08,38,24.90
2006,07,23,08,39,24.90
2006,07,23,08,40,24.90
2006,07,23,08,41,24.80
2006,07,23,08,42,24.70
2006,07,23,08,43,24.70
2006,07,23,08,44,24.60
2006,07,23,08,45,24.60
2006,07,23,08,46,24.60
2006,07,23,08,47,24.60
2006,07,23,08,48,24.60
2006,07,23,08,49,24.60
2006,07,23,08,50,24.50
2006,07,23,08,51,24.50
2006,07,23,08,52,24.40
2006,07,23,08,53,24.40
2006,07,23,08,54,24.30
2006,07,23,08,55,24.10
2006,07,23,08,56,24.10
2006,07,23,08,57,23.90
2006,07,23,08,58,23.80
2006,07,23,08,59,23.70
2006,07,23,09,00,23.50
2006,07,23,09,01,23.30
2006,07,23,09,02,23.30
2006,07,23,09,03,23.00
2006,07,23,09,04,22.80
2006,07,23,09,05,22.70
2006,07,23,09,06,22.60
2006,07,23,09,07,22.50
2006,07,23,09,08,22.30
2006,07,23,09,09,22.20
2006,07,23,09,10,22.10
2006,07,23,09,11,22.00
2006,07,23,09,12,21.90
2006,07,23,09,13,21.90
2006,07,23,09,14,21.70
2006,07,23,09,15,21.60
2006,07,23,09,16,21.50
2006,07,23,09,17,21.40
2006,07,23,09,18,21.30
2006,07,23,09,19,21.10
2006,07,23,09,20,21.00
2006,07,23,09,21,20.90
2006,07,23,09,22,20.80
2006,07,23,09,23,20.80
2006,07,23,09,24,20.70
2006,07,23,09,25,20.60
2006,07,23,09,26,20.60
2006,07,23,09,27,20.60
2006,07,23,09,28,20.60
2006,07,23,09,29,20.70
2006,07,23,09,30,20.60
2006,07,23,09,31,20.60
2006,07,23,09,32,20.70
2006,07,23,09,33,20.80
2006,07,23,09,34,21.00
2006,07,23,09,35,21.20
2006,07,23,09,36,21.30
2006,07,23,09,37,21.30
2006,07,23,09,38,21.40
2006,07,23,09,39,21.50
2006,07,23,09,40,21.50
2006,07,23,09,41,21.40
2006,07,23,09,42,21.50
2006,07,23,09,43,21.60
2006,07,23,09,44,21.60
2006,07,23,09,45,21.70
2006,07,23,09,46,21.80
2006,07,23,09,47,21.90
2006,07,23,09,48,21.90
2006,07,23,09,49,21.90
2006,07,23,09,50,22.00
2006,07,23,09,51,22.10
2006,07,23,09,52,22.10
2006,07,23,09,53,22.20
2006,07,23,09,54,22.30
2006,07,23,09,55,22.50
2006,07,23,09,56,22.60
2006,07,23,09,57,22.70
2006,07,23,09,58,22.70
2006,07,23,09,59,22.60
2006,07,23,10,00,22.50
2006,07,23,10,01,22.40
2006,07,23,10,02,22.40
2006,07,23,10,03,22.50
2006,07,23,10,04,22.60
2006,07,23,10,05,22.70
2006,07,23,10,06,22.70
2006,07,23,10,07,22.80
2006,07,23,10,08,22.80
2006,07,23,10,09,22.90
2006,07,23,10,10,22.90
2006,07,23,10,11,22.80
2006,07,23,10,12,22.70
2006,07,23,10,13,22.60
2006,07,23,10,14,22.60
2006,07,23,10,15,22.70
2006,07,23,10,16,22.80
2006,07,23,10,17,22.90
2006,07,23,10,18,22.90
2006,07,23,10,19,23.10
2006,07,23,10,20,23.30
2006,07,23,10,21,23.60
2006,07,23,10,22,23.80
2006,07,23,10,23,24.00
2006,07,23,10,24,24.20
2006,07,23,10,25,24.40
2006,07,23,10,26,24.50
2006,07,23,10,27,24.50
2006,07,23,10,28,24.40
2006,07,23,10,29,24.30
2006,07,23,10,30,24.20
2006,07,23,10,31,24.20
2006,07,23,10,32,24.30
2006,07,23,10,33,24.40
2006,07,23,10,34,24.40
2006,07,23,10,35,24.40
2006,07,23,10,36,24.50
2006,07,23,10,37,24.50
2006,07,23,10,38,24.50
2006,07,23,10,39,24.40
2006,07,23,10,40,24.30
2006,07,23,10,41,24.20
2006,07,23,10,42,24.10
2006,07,23,10,43,24.10
2006,07,23,10,44,24.20
2006,07,23,10,45,24.20
2006,07,23,10,46,24.30
2006,07,23,10,47,24.30
2006,07,23,10,48,24.40
2006,07,23,10,49,24.50
2006,07,23,10,50,24.70
2006,07,23,10,51,24.70
2006,07,23,10,52,24.70
2006,07,23,10,53,24.80
2006,07,23,10,54,24.80
2006,07,23,10,55,24.80
2006,07,23,10,56,24.70
2006,07,23,10,57,24.70
2006,07,23,10,58,24.60
2006,07,23,10,59,24.60
2006,07,23,11,00,24.60
2006,07,23,11,01,24.60
2006,07,23,11,02,24.80
2006,07,23,11,03,25.00
2006,07,23,11,04,25.10
2006,07,23,11,05,25.20
2006,07,23,11,06,25.10
2006,07,23,11,07,24.90
2006,07,23,11,08,24.80
2006,07,23,11,09,24.90
2006,07,23,11,10,24.90
2006,07,23,11,11,24.90
2006,07,23,11,12,25.00
2006,07,23,11,13,24.90
2006,07,23,11,14,24.90
2006,07,23,11,15,24.90
2006,07,23,11,16,24.90
2006,07,23,11,17,24.90
2006,07,23,11,18,24.90
2006,07,23,11,19,24.80
2006,07,23,11,20,24.60
2006,07,23,11,21,24.50
2006,07,23,11,22,24.40
2006,07,23,11,23,24.30
2006,07,23,11,24,24.30
2006,07,23,11,25,24.30
2006,07,23,11,26,24.30
2006,07,23,11,27,24.20
2006,07,23,11,28,24.20
2006,07,23,11,29,24.20
2006,07,23,11,30,24.20
2006,07,23,11,31,24.20
2006,07,23,11,32,24.40
2006,07,23,11,33,24.50
2006,07,23,11,34,24.60
2006,07,23,11,35,24.70
2006,07,23,11,36,24.70
2006,07,23,11,37,24.60
2006,07,23,11,38,24.70
2006,07,23,11,39,24.80
2006,07,23,11,40,24.90
2006,07,23,11,41,24.80
2006,07,23,11,42,24.70
2006,07,23,11,43,24.80
2006,07,23,11,44,24.90
2006,07,23,11,45,24.90
2006,07,23,11,46,25.00
2006,07,23,11,47,25.10
2006,07,23,11,48,25.20
2006,07,23,11,49,25.30
2006,07,23,11,50,25.40
2006,07,23,11,51,25.50
2006,07,23,11,52,25.60
2006,07,23,11,53,25.70
2006,07,23,11,54,25.60
2006,07,23,11,55,25.60
2006,07,23,11,56,25.50
2006,07,23,11,57,25.50
2006,07,23,11,58,25.50
2006,07,23,11,59,25.50
2006,07,23,12,00,25.50
2006,07,23,12,01,25.50
2006,07,23,12,02,25.50
2006,07,23,12,03,25.40
2006,07,23,12,04,25.40
2006,07,23,12,05,25.50
2006,07,23,12,06,25.60
2006,07,23,12,07,25.70
2006,07,23,12,08,25.70
2006,07,23,12,09,25.60
2006,07,23,12,10,25.40
2006,07,23,12,11,25.40
2006,07,23,12,12,25.30
2006,07,23,12,13,25.30
2006,07,23,12,14,25.30
2006,07,23,12,15,25.30
2006,07,23,12,16,25.30
2006,07,23,12,17,25.20
2006,07,23,12,18,25.30
2006,07,23,12,19,25.40
2006,07,23,12,20,25.60
2006,07,23,12,21,25.60
2006,07,23,12,22,25.80
2006,07,23,12,23,25.90
2006,07,23,12,24,26.00
2006,07,23,12,25,26.00
2006,07,23,12,26,26.10
2006,07,23,12,27,26.10
2006,07,23,12,28,26.30
2006,07,23,12,29,26.50
2006,07,23,12,30,26.50
2006,07,23,12,31,26.40
2006,07,23,12,32,26.30
2006,07,23,12,33,26.30
2006,07,23,12,34,26.30
2006,07,23,12,35,26.30
2006,07,23,12,36,26.30
2006,07,23,12,37,26.10
2006,07,23,12,38,25.90
2006,07,23,12,39,25.90
2006,07,23,12,40,25.90
2006,07,23,12,41,25.90
2006,07,23,12,42,26.00
2006,07,23,12,43,26.10
2006,07,23,12,44,26.10
2006,07,23,12,45,26.10
2006,07,23,12,46,26.20
2006,07,23,12,47,26.30
2006,07,23,12,48,26.40
2006,07,23,12,49,26.50
2006,07,23,12,50,26.60
2006,07,23,12,51,26.60
2006,07,23,12,52,26.70
2006,07,23,12,53,26.70
2006,07,23,12,54,26.70
2006,07,23,12,55,26.70
2006,07,23,12,56,26.60
2006,07,23,12,57,26.70
2006,07,23,12,58,26.70
2006,07,23,12,59,26.80
2006,07,23,13,00,26.80
2006,07,23,13,01,26.80
2006,07,23,13,02,26.80
2006,07,23,13,03,26.90
2006,07,23,13,04,26.90
2006,07,23,13,05,26.80
2006,07,23,13,06,26.70
2006,07,23,13,07,26.60
2006,07,23,13,08,26.60
2006,07,23,13,09,26.60
2006,07,23,13,10,26.60
2006,07,23,13,11,26.60
2006,07,23,13,12,26.70
2006,07,23,13,13,26.90
2006,07,23,13,14,27.10
2006,07,23,13,15,27.30
2006,07,23,13,16,27.30
2006,07,23,13,17,27.40
2006,07,23,13,18,27.40
2006,07,23,13,19,27.50
2006,07,23,13,20,27.40
2006,07,23,13,21,27.30
2006,07,23,13,22,27.10
2006,07,23,13,23,26.90
2006,07,23,13,24,26.80
2006,07,23,13,25,26.70
2006,07,23,13,26,26.70
2006,07,23,13,27,26.60
2006,07,23,13,28,26.60
2006,07,23,13,29,26.60
2006,07,23,13,30,26.60
2006,07,23,13,31,26.80
2006,07,23,13,32,26.90
2006,07,23,13,33,27.10
2006,07,23,13,34,27.20
2006,07,23,13,35,27.30
2006,07,23,13,36,27.30
2006,07,23,13,37,27.30
2006,07,23,13,38,27.20
2006,07,23,13,39,27.10
2006,07,23,13,40,27.00
2006,07,23,13,41,26.90
2006,07,23,13,42,26.80
2006,07,23,13,43,26.70
2006,07,23,13,44,26.80
2006,07,23,13,45,26.90
2006,07,23,13,46,27.10
2006,07,23,13,47,27.30
2006,07,23,13,48,27.40
2006,07,23,13,49,27.50
2006,07,23,13,50,27.70
2006,07,23,13,51,27.80
2006,07,23,13,52,27.90
2006,07,23,13,53,27.90
2006,07,23,13,54,27.80
2006,07,23,13,55,27.80
2006,07,23,13,56,27.70
2006,07,23,13,57,27.70
2006,07,23,13,58,27.70
2006,07,23,13,59,27.60
2006,07,23,14,00,27.70
2006,07,23,14,01,27.70
2006,07,23,14,02,27.60
2006,07,23,14,03,27.70
2006,07,23,14,04,27.70
2006,07,23,14,05,27.80
2006,07,23,14,06,27.90
2006,07,23,14,07,27.90
2006,07,23,14,08,27.90
2006,07,23,14,09,27.80
2006,07,23,14,10,27.80
2006,07,23,14,11,27.80
2006,07,23,14,12,27.70
2006,07,23,14,13,27.70
2006,07,23,14,14,27.70
2006,07,23,14,15,27.60
2006,07,23,14,16,27.60
2006,07,23,14,17,27.60
2006,07,23,14,18,27.40
2006,07,23,14,19,27.50
2006,07,23,14,20,27.60
2006,07,23,14,21,27.70
2006,07,23,14,22,27.70
2006,07,23,14,23,27.80
2006,07,23,14,24,27.80
2006,07,23,14,25,27.80
2006,07,23,14,26,27.80
2006,07,23,14,27,27.80
2006,07,23,14,28,27.70
2006,07,23,14,29,27.70
2006,07,23,14,30,27.60
2006,07,23,14,31,27.60
2006,07,23,14,32,27.70
2006,07,23,14,33,27.70
2006,07,23,14,34,27.70
2006,07,23,14,35,27.70
2006,07,23,14,36,27.70
2006,07,23,14,37,27.80
2006,07,23,14,38,27.90
2006,07,23,14,39,28.00
2006,07,23,14,40,28.00
2006,07,23,14,41,28.10
2006,07,23,14,42,28.30
2006,07,23,14,43,28.30
2006,07,23,14,44,28.30
2006,07,23,14,45,28.30
2006,07,23,14,46,28.30
2006,07,23,14,47,28.30
2006,07,23,14,48,28.30
2006,07,23,14,49,28.30
2006,07,23,14,50,28.30
2006,07,23,14,51,28.40
2006,07,23,14,52,28.40
2006,07,23,14,53,28.40
2006,07,23,14,54,28.40
2006,07,23,14,55,28.30
2006,07,23,14,56,28.10
2006,07,23,14,57,28.10
2006,07,23,14,58,28.10
2006,07,23,14,59,28.10
2006,07,23,15,00,28.10
2006,07,23,15,01,28.10
2006,07,23,15,02,28.20
2006,07,23,15,03,28.20
2006,07,23,15,04,28.20
2006,07,23,15,05,28.30
2006,07,23,15,06,28.40
2006,07,23,15,07,28.40
2006,07,23,15,08,28.40
2006,07,23,15,09,28.30
2006,07,23,15,10,28.40
2006,07,23,15,11,28.40
2006,07,23,15,12,28.50
2006,07,23,15,13,28.50
2006,07,23,15,14,28.40
2006,07,23,15,15,28.40
2006,07,23,15,16,28.40
2006,07,23,15,17,28.50
2006,07,23,15,18,28.60
2006,07,23,15,19,28.60
2006,07,23,15,20,28.60
2006,07,23,15,21,28.60
2006,07,23,15,22,28.80
2006,07,23,15,23,28.80
2006,07,23,15,24,28.90
2006,07,23,15,25,28.90
2006,07,23,15,26,28.90
2006,07,23,15,27,28.90
2006,07,23,15,28,28.90
2006,07,23,15,29,28.90
2006,07,23,15,30,28.80
2006,07,23,15,31,28.80
2006,07,23,15,32,28.80
2006,07,23,15,33,28.80
2006,07,23,15,34,28.80
2006,07,23,15,35,28.60
2006,07,23,15,36,28.50
2006,07,23,15,37,28.40
2006,07,23,15,38,28.40
2006,07,23,15,39,28.40
2006,07,23,15,40,28.40
2006,07,23,15,41,28.30
2006,07,23,15,42,28.10
2006,07,23,15,43,28.10
2006,07,23,15,44,28.20
2006,07,23,15,45,28.20
2006,07,23,15,46,28.20
2006,07,23,15,47,28.10
2006,07,23,15,48,28.10
2006,07,23,15,49,28.00
2006,07,23,15,50,27.80
2006,07,23,15,51,27.70
2006,07,23,15,52,27.60
2006,07,23,15,53,27.60
2006,07,23,15,54,27.60
2006,07,23,15,55,27.60
2006,07,23,15,56,27.70
2006,07,23,15,57,27.90
2006,07,23,15,58,28.10
2006,07,23,15,59,28.20
2006,07,23,16,00,28.20
2006,07,23,16,01,28.20
2006,07,23,16,02,28.10
2006,07,23,16,03,28.10
2006,07,23,16,04,28.10
2006,07,23,16,05,28.10
2006,07,23,16,06,28.20
2006,07,23,16,07,28.20
2006,07,23,16,08,28.10
2006,07,23,16,09,28.10
2006,07,23,16,10,28.10
2006,07,23,16,11,28.00
2006,07,23,16,12,28.00
2006,07,23,16,13,27.90
2006,07,23,16,14,27.90
2006,07,23,16,15,28.00
2006,07,23,16,16,28.00
2006,07,23,16,17,27.90
2006,07,23,16,18,27.80
2006,07,23,16,19,27.60
2006,07,23,16,20,27.40
2006,07,23,16,21,27.40
2006,07,23,16,22,27.40
2006,07,23,16,23,27.30
2006,07,23,16,24,27.30
2006,07,23,16,25,27.30
2006,07,23,16,26,27.40
2006,07,23,16,27,27.50
2006,07,23,16,28,27.60
2006,07,23,16,29,27.60
2006,07,23,16,30,27.70
2006,07,23,16,31,27.80
2006,07,23,16,32,27.80
2006,07,23,16,33,27.80
2006,07,23,16,34,27.80
2006,07,23,16,35,27.80
2006,07,23,16,36,27.90
2006,07,23,16,37,28.00
2006,07,23,16,38,28.00
2006,07,23,16,39,28.10
2006,07,23,16,40,28.10
2006,07,23,16,41,28.10
2006,07,23,16,42,28.00
2006,07,23,16,43,27.90
2006,07,23,16,44,27.90
2006,07,23,16,45,27.80
2006,07,23,16,46,27.80
2006,07,23,16,47,27.90
2006,07,23,16,48,27.80
2006,07,23,16,49,27.90
2006,07,23,16,50,27.90
2006,07,23,16,51,28.00
2006,07,23,16,52,27.90
2006,07,23,16,53,27.90
2006,07,23,16,54,27.80
2006,07,23,16,55,27.70
2006,07,23,16,56,27.80
2006,07,23,16,57,27.70
2006,07,23,16,58,27.80
2006,07,23,16,59,27.80
2006,07,23,17,00,27.80
2006,07,23,17,01,27.80
2006,07,23,17,02,27.70
2006,07,23,17,03,27.70
2006,07,23,17,04,27.80
2006,07,23,17,05,27.80
2006,07,23,17,06,27.80
2006,07,23,17,07,27.80
2006,07,23,17,08,27.80
2006,07,23,17,09,28.00
2006,07,23,17,10,28.00
2006,07,23,17,11,28.00
2006,07,23,17,12,28.00
2006,07,23,17,13,28.00
2006,07,23,17,14,28.00
2006,07,23,17,15,28.00
2006,07,23,17,16,28.10
2006,07,23,17,17,28.10
2006,07,23,17,18,28.10
2006,07,23,17,19,28.10